Year,Month,Day,Hour,Minute,Value (Times are PST for windspeed in km/hr)
2010,07,03,00,00,8.70
2010,07,03,00,01,5.00
2010,07,03,00,02,3.80
2010,07,03,00,03,6.90
2010,07,03,00,04,4.80
2010,07,03,00,05,8.10
2010,07,03,00,06,7.30
2010,07,03,00,07,7.50
2010,07,03,00,08,5.70
2010,07,03,00,09,7.40
2010,07,03,00,10,6.40
2010,07,03,00,11,10.80
2010,07,03,00,12,8.40
2010,07,03,00,13,5.90
2010,07,03,00,14,9.70
2010,07,03,00,15,8.40
2010,07,03,00,16,9.20
2010,07,03,00,17,12.40
2010,07,03,00,18,8.10
2010,07,03,00,19,8.70
2010,07,03,00,20,9.20
2010,07,03,00,21,7.70
2010,07,03,00,22,9.40
2010,07,03,00,23,13.90
2010,07,03,00,24,10.20
2010,07,03,00,25,6.70
2010,07,03,00,26,6.70
2010,07,03,00,27,5.10
2010,07,03,00,28,4.70
2010,07,03,00,29,7.40
2010,07,03,00,30,9.70
2010,07,03,00,31,7.40
2010,07,03,00,32,6.70
2010,07,03,00,33,9.20
2010,07,03,00,34,9.70
2010,07,03,00,35,12.60
2010,07,03,00,36,10.40
2010,07,03,00,37,7.60
2010,07,03,00,38,12.60
2010,07,03,00,39,10.60
2010,07,03,00,40,8.70
2010,07,03,00,41,9.40
2010,07,03,00,42,8.60
2010,07,03,00,43,10.10
2010,07,03,00,44,5.90
2010,07,03,00,45,7.80
2010,07,03,00,46,8.80
2010,07,03,00,47,9.40
2010,07,03,00,48,9.80
2010,07,03,00,49,7.80
2010,07,03,00,50,7.50
2010,07,03,00,51,7.30
2010,07,03,00,52,6.70
2010,07,03,00,53,7.60
2010,07,03,00,54,4.80
2010,07,03,00,55,5.00
2010,07,03,00,56,5.30
2010,07,03,00,57,3.00
2010,07,03,00,58,5.10
2010,07,03,00,59,5.60
2010,07,03,01,00,5.60
2010,07,03,01,01,5.10
2010,07,03,01,02,4.80
2010,07,03,01,03,5.20
2010,07,03,01,04,6.70
2010,07,03,01,05,7.30
2010,07,03,01,06,8.60
2010,07,03,01,07,6.10
2010,07,03,01,08,7.10
2010,07,03,01,09,6.40
2010,07,03,01,10,7.20
2010,07,03,01,11,7.00
2010,07,03,01,12,6.10
2010,07,03,01,13,6.40
2010,07,03,01,14,6.50
2010,07,03,01,15,3.80
2010,07,03,01,16,6.00
2010,07,03,01,17,6.00
2010,07,03,01,18,6.40
2010,07,03,01,19,5.30
2010,07,03,01,20,4.40
2010,07,03,01,21,6.80
2010,07,03,01,22,6.20
2010,07,03,01,23,7.20
2010,07,03,01,24,7.40
2010,07,03,01,25,5.70
2010,07,03,01,26,6.10
2010,07,03,01,27,4.90
2010,07,03,01,28,4.20
2010,07,03,01,29,6.70
2010,07,03,01,30,7.00
2010,07,03,01,31,4.80
2010,07,03,01,32,7.70
2010,07,03,01,33,5.10
2010,07,03,01,34,3.40
2010,07,03,01,35,1.50
2010,07,03,01,36,4.30
2010,07,03,01,37,8.10
2010,07,03,01,38,7.90
2010,07,03,01,39,5.40
2010,07,03,01,40,5.80
2010,07,03,01,41,5.90
2010,07,03,01,42,5.20
2010,07,03,01,43,3.50
2010,07,03,01,44,5.70
2010,07,03,01,45,4.70
2010,07,03,01,46,4.10
2010,07,03,01,47,4.00
2010,07,03,01,48,7.70
2010,07,03,01,49,9.10
2010,07,03,01,50,6.40
2010,07,03,01,51,5.70
2010,07,03,01,52,9.40
2010,07,03,01,53,10.10
2010,07,03,01,54,7.10
2010,07,03,01,55,6.20
2010,07,03,01,56,7.30
2010,07,03,01,57,6.10
2010,07,03,01,58,6.40
2010,07,03,01,59,9.20
2010,07,03,02,00,7.90
2010,07,03,02,01,7.00
2010,07,03,02,02,7.70
2010,07,03,02,03,5.00
2010,07,03,02,04,6.30
2010,07,03,02,05,6.90
2010,07,03,02,06,4.60
2010,07,03,02,07,4.70
2010,07,03,02,08,5.60
2010,07,03,02,09,2.90
2010,07,03,02,10,3.60
2010,07,03,02,11,4.10
2010,07,03,02,12,5.00
2010,07,03,02,13,5.10
2010,07,03,02,14,3.50
2010,07,03,02,15,6.00
2010,07,03,02,16,8.20
2010,07,03,02,17,9.60
2010,07,03,02,18,6.20
2010,07,03,02,19,5.30
2010,07,03,02,20,3.60
2010,07,03,02,21,3.50
2010,07,03,02,22,4.50
2010,07,03,02,23,3.00
2010,07,03,02,24,1.80
2010,07,03,02,25,2.60
2010,07,03,02,26,3.50
2010,07,03,02,27,3.80
2010,07,03,02,28,4.20
2010,07,03,02,29,3.80
2010,07,03,02,30,3.30
2010,07,03,02,31,4.60
2010,07,03,02,32,5.00
2010,07,03,02,33,8.40
2010,07,03,02,34,4.80
2010,07,03,02,35,5.60
2010,07,03,02,36,7.10
2010,07,03,02,37,7.70
2010,07,03,02,38,6.00
2010,07,03,02,39,5.40
2010,07,03,02,40,8.30
2010,07,03,02,41,3.60
2010,07,03,02,42,3.90
2010,07,03,02,43,5.30
2010,07,03,02,44,4.80
2010,07,03,02,45,4.80
2010,07,03,02,46,5.30
2010,07,03,02,47,5.30
2010,07,03,02,48,8.20
2010,07,03,02,49,4.70
2010,07,03,02,50,7.00
2010,07,03,02,51,7.80
2010,07,03,02,52,4.40
2010,07,03,02,53,5.40
2010,07,03,02,54,3.50
2010,07,03,02,55,5.10
2010,07,03,02,56,3.50
2010,07,03,02,57,5.90
2010,07,03,02,58,4.00
2010,07,03,02,59,4.90
2010,07,03,03,00,5.40
2010,07,03,03,01,5.50
2010,07,03,03,02,5.40
2010,07,03,03,06,3.10
2010,07,03,03,07,3.80
2010,07,03,03,08,5.80
2010,07,03,03,09,5.50
2010,07,03,03,10,4.10
2010,07,03,03,11,6.20
2010,07,03,03,12,3.70
2010,07,03,03,13,4.10
2010,07,03,03,14,4.20
2010,07,03,03,15,9.00
2010,07,03,03,16,5.70
2010,07,03,03,17,7.20
2010,07,03,03,18,5.90
2010,07,03,03,19,5.70
2010,07,03,03,20,7.30
2010,07,03,03,21,7.60
2010,07,03,03,22,6.30
2010,07,03,03,23,6.00
2010,07,03,03,24,7.00
2010,07,03,03,25,5.20
2010,07,03,03,26,5.20
2010,07,03,03,27,4.10
2010,07,03,03,28,5.00
2010,07,03,03,29,4.50
2010,07,03,03,30,7.20
2010,07,03,03,31,9.10
2010,07,03,03,32,9.30
2010,07,03,03,33,5.80
2010,07,03,03,34,5.50
2010,07,03,03,35,5.40
2010,07,03,03,36,5.10
2010,07,03,03,37,4.70
2010,07,03,03,38,7.20
2010,07,03,03,39,5.90
2010,07,03,03,40,6.40
2010,07,03,03,41,6.70
2010,07,03,03,42,6.40
2010,07,03,03,43,8.00
2010,07,03,03,44,7.90
2010,07,03,03,45,5.80
2010,07,03,03,46,6.30
2010,07,03,03,47,8.10
2010,07,03,03,48,6.40
2010,07,03,03,49,7.90
2010,07,03,03,50,8.10
2010,07,03,03,51,8.90
2010,07,03,03,52,6.80
2010,07,03,03,53,4.70
2010,07,03,03,54,7.00
2010,07,03,03,55,7.20
2010,07,03,03,56,7.30
2010,07,03,03,57,7.00
2010,07,03,03,58,7.00
2010,07,03,03,59,6.30
2010,07,03,04,00,4.90
2010,07,03,04,01,5.70
2010,07,03,04,02,8.70
2010,07,03,04,03,6.40
2010,07,03,04,04,4.40
2010,07,03,04,05,8.50
2010,07,03,04,06,5.40
2010,07,03,04,07,6.20
2010,07,03,04,08,7.20
2010,07,03,04,09,8.40
2010,07,03,04,10,7.70
2010,07,03,04,11,8.90
2010,07,03,04,12,7.20
2010,07,03,04,13,6.40
2010,07,03,04,14,8.30
2010,07,03,04,15,8.20
2010,07,03,04,16,6.40
2010,07,03,04,17,8.90
2010,07,03,04,18,5.30
2010,07,03,04,19,6.90
2010,07,03,04,20,5.60
2010,07,03,04,21,8.30
2010,07,03,04,22,9.10
2010,07,03,04,23,7.40
2010,07,03,04,24,7.10
2010,07,03,04,25,8.10
2010,07,03,04,26,6.70
2010,07,03,04,27,5.50
2010,07,03,04,28,9.10
2010,07,03,04,29,5.60
2010,07,03,04,30,6.80
2010,07,03,04,31,2.60
2010,07,03,04,32,6.20
2010,07,03,04,33,5.60
2010,07,03,04,34,4.20
2010,07,03,04,35,3.70
2010,07,03,04,36,5.00
2010,07,03,04,37,3.60
2010,07,03,04,38,2.90
2010,07,03,04,39,4.40
2010,07,03,04,40,5.30
2010,07,03,04,41,4.50
2010,07,03,04,42,5.30
2010,07,03,04,43,3.70
2010,07,03,04,44,4.50
2010,07,03,04,45,5.30
2010,07,03,04,46,3.90
2010,07,03,04,47,4.20
2010,07,03,04,48,4.70
2010,07,03,04,49,4.40
2010,07,03,04,50,3.60
2010,07,03,04,51,3.80
2010,07,03,04,52,4.80
2010,07,03,04,53,4.70
2010,07,03,04,54,3.70
2010,07,03,04,55,6.10
2010,07,03,04,56,4.80
2010,07,03,04,57,3.90
2010,07,03,04,58,4.70
2010,07,03,04,59,4.40
2010,07,03,05,00,5.00
2010,07,03,05,01,3.90
2010,07,03,05,02,2.20
2010,07,03,05,03,2.10
2010,07,03,05,04,4.60
2010,07,03,05,05,6.10
2010,07,03,05,06,3.90
2010,07,03,05,07,4.40
2010,07,03,05,08,4.40
2010,07,03,05,09,5.00
2010,07,03,05,10,4.60
2010,07,03,05,11,3.50
2010,07,03,05,12,2.30
2010,07,03,05,13,1.80
2010,07,03,05,14,3.50
2010,07,03,05,15,3.00
2010,07,03,05,16,3.40
2010,07,03,05,17,3.10
2010,07,03,05,18,2.40
2010,07,03,05,19,1.80
2010,07,03,05,20,1.80
2010,07,03,05,21,3.60
2010,07,03,05,22,3.50
2010,07,03,05,23,3.30
2010,07,03,05,24,1.40
2010,07,03,05,25,3.30
2010,07,03,05,26,2.40
2010,07,03,05,27,3.20
2010,07,03,05,28,2.00
2010,07,03,05,29,3.10
2010,07,03,05,30,5.10
2010,07,03,05,31,4.40
2010,07,03,05,32,4.70
2010,07,03,05,33,3.80
2010,07,03,05,34,5.50
2010,07,03,05,35,5.70
2010,07,03,05,36,4.80
2010,07,03,05,37,2.80
2010,07,03,05,38,2.30
2010,07,03,05,39,3.20
2010,07,03,05,40,1.50
2010,07,03,05,41,4.80
2010,07,03,05,42,5.40
2010,07,03,05,43,4.30
2010,07,03,05,44,3.70
2010,07,03,05,45,2.40
2010,07,03,05,46,2.50
2010,07,03,05,47,3.20
2010,07,03,05,48,2.60
2010,07,03,05,49,3.10
2010,07,03,05,50,3.20
2010,07,03,05,51,4.20
2010,07,03,05,52,4.40
2010,07,03,05,53,3.10
2010,07,03,05,54,3.60
2010,07,03,05,55,4.10
2010,07,03,05,56,4.40
2010,07,03,05,57,2.50
2010,07,03,05,58,3.80
2010,07,03,05,59,4.10
2010,07,03,06,00,5.00
2010,07,03,06,01,3.90
2010,07,03,06,02,4.80
2010,07,03,06,03,3.30
2010,07,03,06,04,2.40
2010,07,03,06,05,3.10
2010,07,03,06,06,4.80
2010,07,03,06,07,4.70
2010,07,03,06,08,6.30
2010,07,03,06,09,5.00
2010,07,03,06,10,2.80
2010,07,03,06,11,4.70
2010,07,03,06,12,3.80
2010,07,03,06,13,2.60
2010,07,03,06,14,3.40
2010,07,03,06,15,3.90
2010,07,03,06,16,5.40
2010,07,03,06,17,4.40
2010,07,03,06,18,5.00
2010,07,03,06,19,3.90
2010,07,03,06,20,4.70
2010,07,03,06,21,3.60
2010,07,03,06,22,1.20
2010,07,03,06,23,1.60
2010,07,03,06,24,2.70
2010,07,03,06,25,3.30
2010,07,03,06,26,4.80
2010,07,03,06,27,5.60
2010,07,03,06,28,6.10
2010,07,03,06,29,4.90
2010,07,03,06,30,4.70
2010,07,03,06,31,3.70
2010,07,03,06,32,3.80
2010,07,03,06,33,5.40
2010,07,03,06,34,4.40
2010,07,03,06,35,3.70
2010,07,03,06,36,4.10
2010,07,03,06,37,2.70
2010,07,03,06,38,3.80
2010,07,03,06,39,3.60
2010,07,03,06,40,4.80
2010,07,03,06,41,3.40
2010,07,03,06,42,3.30
2010,07,03,06,43,4.10
2010,07,03,06,44,3.10
2010,07,03,06,45,2.80
2010,07,03,06,46,3.90
2010,07,03,06,47,5.60
2010,07,03,06,48,5.10
2010,07,03,06,49,5.30
2010,07,03,06,50,3.70
2010,07,03,06,51,4.80
2010,07,03,06,52,3.20
2010,07,03,06,53,3.60
2010,07,03,06,54,3.70
2010,07,03,06,55,4.60
2010,07,03,06,56,6.40
2010,07,03,06,57,4.10
2010,07,03,06,58,5.00
2010,07,03,06,59,6.40
2010,07,03,07,00,4.30
2010,07,03,07,01,4.30
2010,07,03,07,02,3.00
2010,07,03,07,03,2.80
2010,07,03,07,04,4.60
2010,07,03,07,05,4.70
2010,07,03,07,06,2.50
2010,07,03,07,07,5.10
2010,07,03,07,08,4.00
2010,07,03,07,09,3.30
2010,07,03,07,10,3.20
2010,07,03,07,11,4.40
2010,07,03,07,12,4.90
2010,07,03,07,13,2.60
2010,07,03,07,14,4.70
2010,07,03,07,15,4.10
2010,07,03,07,16,5.20
2010,07,03,07,17,5.40
2010,07,03,07,18,4.80
2010,07,03,07,19,3.70
2010,07,03,07,20,5.30
2010,07,03,07,21,7.30
2010,07,03,07,22,5.40
2010,07,03,07,23,3.80
2010,07,03,07,24,5.50
2010,07,03,07,25,5.70
2010,07,03,07,26,5.00
2010,07,03,07,27,5.30
2010,07,03,07,28,6.20
2010,07,03,07,29,2.80
2010,07,03,07,30,3.90
2010,07,03,07,31,1.70
2010,07,03,07,32,2.90
2010,07,03,07,33,2.00
2010,07,03,07,34,2.20
2010,07,03,07,35,3.40
2010,07,03,07,36,2.70
2010,07,03,07,37,3.40
2010,07,03,07,38,2.80
2010,07,03,07,39,1.50
2010,07,03,07,40,2.30
2010,07,03,07,41,1.70
2010,07,03,07,42,3.40
2010,07,03,07,43,3.70
2010,07,03,07,44,6.40
2010,07,03,07,45,7.10
2010,07,03,07,46,5.40
2010,07,03,07,47,3.70
2010,07,03,07,48,4.70
2010,07,03,07,49,4.70
2010,07,03,07,50,3.00
2010,07,03,07,51,3.00
2010,07,03,07,52,2.60
2010,07,03,07,53,3.10
2010,07,03,07,54,4.50
2010,07,03,07,55,4.50
2010,07,03,07,56,2.60
2010,07,03,07,57,2.30
2010,07,03,07,58,2.10
2010,07,03,07,59,3.20
2010,07,03,08,00,2.00
2010,07,03,08,01,2.60
2010,07,03,08,02,2.80
2010,07,03,08,03,2.70
2010,07,03,08,04,4.30
2010,07,03,08,05,6.00
2010,07,03,08,06,6.00
2010,07,03,08,07,4.20
2010,07,03,08,08,3.70
2010,07,03,08,09,3.40
2010,07,03,08,10,3.80
2010,07,03,08,11,2.90
2010,07,03,08,12,2.90
2010,07,03,08,13,4.10
2010,07,03,08,14,5.10
2010,07,03,08,15,6.00
2010,07,03,08,16,5.40
2010,07,03,08,17,4.60
2010,07,03,08,18,2.80
2010,07,03,08,19,3.40
2010,07,03,08,20,5.30
2010,07,03,08,21,4.80
2010,07,03,08,22,6.30
2010,07,03,08,23,6.50
2010,07,03,08,24,4.40
2010,07,03,08,25,5.10
2010,07,03,08,26,3.40
2010,07,03,08,27,4.40
2010,07,03,08,28,3.40
2010,07,03,08,29,3.60
2010,07,03,08,30,3.80
2010,07,03,08,31,3.80
2010,07,03,08,32,2.60
2010,07,03,08,33,5.40
2010,07,03,08,34,3.70
2010,07,03,08,35,4.10
2010,07,03,08,36,4.00
2010,07,03,08,37,2.20
2010,07,03,08,38,2.80
2010,07,03,08,39,5.50
2010,07,03,08,40,4.10
2010,07,03,08,41,3.90
2010,07,03,08,42,3.40
2010,07,03,08,43,4.50
2010,07,03,08,44,4.50
2010,07,03,08,45,5.60
2010,07,03,08,46,5.50
2010,07,03,08,47,5.20
2010,07,03,08,48,7.80
2010,07,03,08,49,7.40
2010,07,03,08,50,7.40
2010,07,03,08,51,3.20
2010,07,03,08,52,4.50
2010,07,03,08,53,7.70
2010,07,03,08,54,3.70
2010,07,03,08,55,3.90
2010,07,03,08,56,4.20
2010,07,03,08,57,2.40
2010,07,03,08,58,4.30
2010,07,03,08,59,6.60
2010,07,03,09,00,4.50
2010,07,03,09,01,4.40
2010,07,03,09,02,2.80
2010,07,03,09,03,3.60
2010,07,03,09,04,5.70
2010,07,03,09,05,8.80
2010,07,03,09,06,5.60
2010,07,03,09,07,4.30
2010,07,03,09,08,6.40
2010,07,03,09,09,7.50
2010,07,03,09,10,6.10
2010,07,03,09,11,5.20
2010,07,03,09,12,5.40
2010,07,03,09,13,6.40
2010,07,03,09,14,4.80
2010,07,03,09,15,5.80
2010,07,03,09,16,8.10
2010,07,03,09,17,5.50
2010,07,03,09,18,7.90
2010,07,03,09,19,5.60
2010,07,03,09,20,5.00
2010,07,03,09,21,6.30
2010,07,03,09,22,5.00
2010,07,03,09,23,6.90
2010,07,03,09,24,6.40
2010,07,03,09,25,5.00
2010,07,03,09,26,1.50
2010,07,03,09,27,2.20
2010,07,03,09,28,7.00
2010,07,03,09,29,7.40
2010,07,03,09,30,5.70
2010,07,03,09,31,6.40
2010,07,03,09,32,7.40
2010,07,03,09,33,5.40
2010,07,03,09,34,4.80
2010,07,03,09,35,4.40
2010,07,03,09,36,3.90
2010,07,03,09,37,4.90
2010,07,03,09,38,4.40
2010,07,03,09,39,3.90
2010,07,03,09,40,2.90
2010,07,03,09,41,3.00
2010,07,03,09,42,3.00
2010,07,03,09,43,5.00
2010,07,03,09,44,4.30
2010,07,03,09,45,2.80
2010,07,03,09,46,5.10
2010,07,03,09,47,2.60
2010,07,03,09,48,5.80
2010,07,03,09,49,8.70
2010,07,03,09,50,9.70
2010,07,03,09,51,4.30
2010,07,03,09,52,1.80
2010,07,03,09,53,4.80
2010,07,03,09,54,7.50
2010,07,03,09,55,7.70
2010,07,03,09,56,6.70
2010,07,03,09,57,6.30
2010,07,03,09,58,7.20
2010,07,03,09,59,7.60
2010,07,03,10,00,5.50
2010,07,03,10,01,3.90
2010,07,03,10,02,6.20
2010,07,03,10,03,6.00
2010,07,03,10,04,7.10
2010,07,03,10,05,6.00
2010,07,03,10,06,7.30
2010,07,03,10,07,5.00
2010,07,03,10,08,6.60
2010,07,03,10,09,5.40
2010,07,03,10,10,6.00
2010,07,03,10,11,8.10
2010,07,03,10,12,5.60
2010,07,03,10,13,6.60
2010,07,03,10,14,5.10
2010,07,03,10,15,8.30
2010,07,03,10,16,3.70
2010,07,03,10,17,6.20
2010,07,03,10,18,7.10
2010,07,03,10,19,6.40
2010,07,03,10,20,7.70
2010,07,03,10,21,9.00
2010,07,03,10,22,6.70
2010,07,03,10,23,8.40
2010,07,03,10,24,6.70
2010,07,03,10,25,8.80
2010,07,03,10,26,13.60
2010,07,03,10,27,10.30
2010,07,03,10,28,8.60
2010,07,03,10,29,10.20
2010,07,03,10,30,11.60
2010,07,03,10,31,8.80
2010,07,03,10,32,11.60
2010,07,03,10,33,12.10
2010,07,03,10,34,7.90
2010,07,03,10,35,8.90
2010,07,03,10,36,8.90
2010,07,03,10,37,7.80
2010,07,03,10,38,9.60
2010,07,03,10,39,13.70
2010,07,03,10,40,6.70
2010,07,03,10,41,6.70
2010,07,03,10,42,9.40
2010,07,03,10,43,10.00
2010,07,03,10,44,9.70
2010,07,03,10,45,9.00
2010,07,03,10,46,9.50
2010,07,03,10,47,10.80
2010,07,03,10,48,9.80
2010,07,03,10,49,9.70
2010,07,03,10,50,7.80
2010,07,03,10,51,7.30
2010,07,03,10,52,7.50
2010,07,03,10,53,8.40
2010,07,03,10,54,6.90
2010,07,03,10,55,10.80
2010,07,03,10,56,8.20
2010,07,03,10,57,9.40
2010,07,03,10,58,9.80
2010,07,03,10,59,10.00
2010,07,03,11,00,8.40
2010,07,03,11,01,11.60
2010,07,03,11,02,10.40
2010,07,03,11,03,7.80
2010,07,03,11,04,6.20
2010,07,03,11,05,10.50
2010,07,03,11,06,12.60
2010,07,03,11,07,10.40
2010,07,03,11,08,14.10
2010,07,03,11,09,12.00
2010,07,03,11,10,12.50
2010,07,03,11,11,11.00
2010,07,03,11,12,11.60
2010,07,03,11,13,12.00
2010,07,03,11,14,11.00
2010,07,03,11,15,11.10
2010,07,03,11,16,11.90
2010,07,03,11,17,9.40
2010,07,03,11,18,10.60
2010,07,03,11,19,11.30
2010,07,03,11,20,8.50
2010,07,03,11,21,9.40
2010,07,03,11,22,11.90
2010,07,03,11,23,7.70
2010,07,03,11,24,10.70
2010,07,03,11,25,10.10
2010,07,03,11,26,13.00
2010,07,03,11,27,12.60
2010,07,03,11,28,13.80
2010,07,03,11,29,14.00
2010,07,03,11,30,13.50
2010,07,03,11,31,12.60
2010,07,03,11,32,13.70
2010,07,03,11,33,13.60
2010,07,03,11,34,12.40
2010,07,03,11,35,12.40
2010,07,03,11,36,7.40
2010,07,03,11,37,12.30
2010,07,03,11,38,9.90
2010,07,03,11,39,11.00
2010,07,03,11,40,10.70
2010,07,03,11,41,14.20
2010,07,03,11,42,11.20
2010,07,03,11,43,8.50
2010,07,03,11,44,7.80
2010,07,03,11,45,14.90
2010,07,03,11,46,9.00
2010,07,03,11,47,9.70
2010,07,03,11,48,13.30
2010,07,03,11,49,8.60
2010,07,03,11,50,9.90
2010,07,03,11,51,11.00
2010,07,03,11,52,13.70
2010,07,03,11,53,6.50
2010,07,03,11,54,7.70
2010,07,03,11,55,9.40
2010,07,03,11,56,10.10
2010,07,03,11,57,9.10
2010,07,03,11,58,9.70
2010,07,03,11,59,11.00
2010,07,03,12,00,11.40
2010,07,03,12,01,10.40
2010,07,03,12,02,11.80
2010,07,03,12,03,11.60
2010,07,03,12,04,9.10
2010,07,03,12,05,13.00
2010,07,03,12,06,10.60
2010,07,03,12,07,10.60
2010,07,03,12,08,8.30
2010,07,03,12,09,8.10
2010,07,03,12,10,7.60
2010,07,03,12,11,10.80
2010,07,03,12,12,9.10
2010,07,03,12,13,12.00
2010,07,03,12,14,8.80
2010,07,03,12,15,8.10
2010,07,03,12,16,11.50
2010,07,03,12,17,8.60
2010,07,03,12,18,12.60
2010,07,03,12,19,13.30
2010,07,03,12,20,12.50
2010,07,03,12,21,12.60
2010,07,03,12,22,7.70
2010,07,03,12,23,11.90
2010,07,03,12,24,8.70
2010,07,03,12,25,11.80
2010,07,03,12,26,11.60
2010,07,03,12,27,12.60
2010,07,03,12,28,11.10
2010,07,03,12,29,11.10
2010,07,03,12,30,12.00
2010,07,03,12,31,12.60
2010,07,03,12,32,12.80
2010,07,03,12,33,10.80
2010,07,03,12,34,10.20
2010,07,03,12,35,5.70
2010,07,03,12,36,10.70
2010,07,03,12,37,14.20
2010,07,03,12,38,11.10
2010,07,03,12,39,14.70
2010,07,03,12,40,12.60
2010,07,03,12,41,8.30
2010,07,03,12,42,5.30
2010,07,03,12,43,10.70
2010,07,03,12,44,13.00
2010,07,03,12,45,12.60
2010,07,03,12,46,11.80
2010,07,03,12,47,10.10
2010,07,03,12,48,10.40
2010,07,03,12,49,11.20
2010,07,03,12,50,10.50
2010,07,03,12,51,13.90
2010,07,03,12,52,13.70
2010,07,03,12,53,8.60
2010,07,03,12,54,10.10
2010,07,03,12,55,10.70
2010,07,03,12,56,13.40
2010,07,03,12,57,15.30
2010,07,03,12,58,8.40
2010,07,03,12,59,13.30
2010,07,03,13,00,15.00
2010,07,03,13,01,10.30
2010,07,03,13,02,12.60
2010,07,03,13,03,12.00
2010,07,03,13,04,10.20
2010,07,03,13,05,11.30
2010,07,03,13,06,15.70
2010,07,03,13,07,13.30
2010,07,03,13,08,9.40
2010,07,03,13,09,11.70
2010,07,03,13,10,10.00
2010,07,03,13,11,11.10
2010,07,03,13,12,9.00
2010,07,03,13,13,9.60
2010,07,03,13,14,9.90
2010,07,03,13,15,5.80
2010,07,03,13,16,12.30
2010,07,03,13,17,11.60
2010,07,03,13,18,13.10
2010,07,03,13,19,12.70
2010,07,03,13,20,11.60
2010,07,03,13,21,12.30
2010,07,03,13,22,11.70
2010,07,03,13,23,13.50
2010,07,03,13,24,12.70
2010,07,03,13,25,15.70
2010,07,03,13,26,11.30
2010,07,03,13,27,12.30
2010,07,03,13,28,13.30
2010,07,03,13,29,13.00
2010,07,03,13,30,11.00
2010,07,03,13,31,13.50
2010,07,03,13,32,13.10
2010,07,03,13,33,15.60
2010,07,03,13,34,11.40
2010,07,03,13,35,13.80
2010,07,03,13,36,14.00
2010,07,03,13,37,15.50
2010,07,03,13,38,11.20
2010,07,03,13,39,12.60
2010,07,03,13,40,11.10
2010,07,03,13,41,12.30
2010,07,03,13,42,9.40
2010,07,03,13,43,9.70
2010,07,03,13,44,8.10
2010,07,03,13,45,8.90
2010,07,03,13,46,8.10
2010,07,03,13,47,11.70
2010,07,03,13,48,9.80
2010,07,03,13,49,11.80
2010,07,03,13,50,6.40
2010,07,03,13,51,7.40
2010,07,03,13,52,11.60
2010,07,03,13,53,10.70
2010,07,03,13,54,13.10
2010,07,03,13,55,15.90
2010,07,03,13,56,13.10
2010,07,03,13,57,12.20
2010,07,03,13,58,14.20
2010,07,03,13,59,12.40
2010,07,03,14,00,11.00
2010,07,03,14,01,11.10
2010,07,03,14,02,11.90
2010,07,03,14,03,15.40
2010,07,03,14,04,10.00
2010,07,03,14,05,16.60
2010,07,03,14,06,12.30
2010,07,03,14,07,16.00
2010,07,03,14,08,10.80
2010,07,03,14,09,17.40
2010,07,03,14,10,12.90
2010,07,03,14,11,11.80
2010,07,03,14,12,11.70
2010,07,03,14,13,14.20
2010,07,03,14,14,13.30
2010,07,03,14,15,12.90
2010,07,03,14,16,18.20
2010,07,03,14,17,13.30
2010,07,03,14,18,13.40
2010,07,03,14,19,10.00
2010,07,03,14,20,16.40
2010,07,03,14,21,13.50
2010,07,03,14,22,14.50
2010,07,03,14,23,11.50
2010,07,03,14,24,13.80
2010,07,03,14,25,11.80
2010,07,03,14,26,12.00
2010,07,03,14,27,15.20
2010,07,03,14,28,10.40
2010,07,03,14,29,13.80
2010,07,03,14,30,6.90
2010,07,03,14,31,11.50
2010,07,03,14,32,13.60
2010,07,03,14,33,10.80
2010,07,03,14,34,9.40
2010,07,03,14,35,10.70
2010,07,03,14,36,8.60
2010,07,03,14,37,10.70
2010,07,03,14,38,9.30
2010,07,03,14,39,7.50
2010,07,03,14,40,12.90
2010,07,03,14,41,10.50
2010,07,03,14,42,13.70
2010,07,03,14,43,10.80
2010,07,03,14,44,10.00
2010,07,03,14,45,12.30
2010,07,03,14,46,16.90
2010,07,03,14,47,13.00
2010,07,03,14,48,15.40
2010,07,03,14,49,15.70
2010,07,03,14,50,14.10
2010,07,03,14,51,13.20
2010,07,03,14,52,14.00
2010,07,03,14,53,13.70
2010,07,03,14,54,11.20
2010,07,03,14,55,13.40
2010,07,03,14,56,11.70
2010,07,03,14,57,11.90
2010,07,03,14,58,13.20
2010,07,03,14,59,13.30
2010,07,03,15,00,8.50
2010,07,03,15,01,10.30
2010,07,03,15,02,13.00
2010,07,03,15,03,12.00
2010,07,03,15,04,9.50
2010,07,03,15,05,7.70
2010,07,03,15,06,11.50
2010,07,03,15,07,8.60
2010,07,03,15,08,10.30
2010,07,03,15,09,11.80
2010,07,03,15,10,10.00
2010,07,03,15,11,7.40
2010,07,03,15,12,7.60
2010,07,03,15,13,7.80
2010,07,03,15,14,8.80
2010,07,03,15,15,8.80
2010,07,03,15,16,9.70
2010,07,03,15,17,7.10
2010,07,03,15,18,9.40
2010,07,03,15,19,12.70
2010,07,03,15,20,12.30
2010,07,03,15,21,13.30
2010,07,03,15,22,9.40
2010,07,03,15,23,11.00
2010,07,03,15,24,11.90
2010,07,03,15,25,9.70
2010,07,03,15,26,12.70
2010,07,03,15,27,12.10
2010,07,03,15,28,13.10
2010,07,03,15,29,10.40
2010,07,03,15,30,11.20
2010,07,03,15,31,11.00
2010,07,03,15,32,10.60
2010,07,03,15,33,10.20
2010,07,03,15,34,11.70
2010,07,03,15,35,10.20
2010,07,03,15,36,10.00
2010,07,03,15,37,11.10
2010,07,03,15,38,11.10
2010,07,03,15,39,12.60
2010,07,03,15,40,10.30
2010,07,03,15,41,8.00
2010,07,03,15,42,11.80
2010,07,03,15,43,14.70
2010,07,03,15,44,11.50
2010,07,03,15,45,11.50
2010,07,03,15,46,9.90
2010,07,03,15,47,9.80
2010,07,03,15,48,11.10
2010,07,03,15,49,10.80
2010,07,03,15,50,9.30
2010,07,03,15,51,10.80
2010,07,03,15,52,7.90
2010,07,03,15,53,12.00
2010,07,03,15,54,13.20
2010,07,03,15,55,11.00
2010,07,03,15,56,13.30
2010,07,03,15,57,11.10
2010,07,03,15,58,11.00
2010,07,03,15,59,11.80
2010,07,03,16,00,12.20
2010,07,03,16,01,12.90
2010,07,03,16,02,9.70
2010,07,03,16,03,11.20
2010,07,03,16,04,13.50
2010,07,03,16,05,8.30
2010,07,03,16,06,8.50
2010,07,03,16,07,6.40
2010,07,03,16,08,9.00
2010,07,03,16,09,9.70
2010,07,03,16,10,7.10
2010,07,03,16,11,11.20
2010,07,03,16,12,10.20
2010,07,03,16,13,10.90
2010,07,03,16,14,11.30
2010,07,03,16,15,11.70
2010,07,03,16,16,9.40
2010,07,03,16,17,8.50
2010,07,03,16,18,12.00
2010,07,03,16,19,10.20
2010,07,03,16,20,9.80
2010,07,03,16,21,8.00
2010,07,03,16,22,8.80
2010,07,03,16,23,12.00
2010,07,03,16,24,12.00
2010,07,03,16,25,11.80
2010,07,03,16,26,15.00
2010,07,03,16,27,11.70
2010,07,03,16,28,8.20
2010,07,03,16,29,10.30
2010,07,03,16,30,12.50
2010,07,03,16,31,12.10
2010,07,03,16,32,13.30
2010,07,03,16,33,13.30
2010,07,03,16,34,12.80
2010,07,03,16,35,8.90
2010,07,03,16,36,12.20
2010,07,03,16,37,10.60
2010,07,03,16,38,12.30
2010,07,03,16,39,12.10
2010,07,03,16,40,11.70
2010,07,03,16,41,8.10
2010,07,03,16,42,10.60
2010,07,03,16,43,10.50
2010,07,03,16,44,10.40
2010,07,03,16,45,10.10
2010,07,03,16,46,11.00
2010,07,03,16,47,12.80
2010,07,03,16,48,11.10
2010,07,03,16,49,13.60
2010,07,03,16,50,8.00
2010,07,03,16,51,7.80
2010,07,03,16,52,4.70
2010,07,03,16,53,6.90
2010,07,03,16,54,11.00
2010,07,03,16,55,4.40
2010,07,03,16,56,9.60
2010,07,03,16,57,10.30
2010,07,03,16,58,3.90
2010,07,03,16,59,6.80
2010,07,03,17,00,7.10
2010,07,03,17,01,7.70
2010,07,03,17,02,11.30
2010,07,03,17,03,11.90
2010,07,03,17,04,10.40
2010,07,03,17,05,4.50
2010,07,03,17,06,10.80
2010,07,03,17,07,10.70
2010,07,03,17,08,9.80
2010,07,03,17,09,7.10
2010,07,03,17,10,7.90
2010,07,03,17,11,9.40
2010,07,03,17,12,9.30
2010,07,03,17,13,10.00
2010,07,03,17,14,8.40
2010,07,03,17,15,10.50
2010,07,03,17,16,10.40
2010,07,03,17,17,4.30
2010,07,03,17,18,8.40
2010,07,03,17,19,7.00
2010,07,03,17,20,7.40
2010,07,03,17,21,5.50
2010,07,03,17,22,10.90
2010,07,03,17,23,8.40
2010,07,03,17,24,9.60
2010,07,03,17,25,9.90
2010,07,03,17,26,11.80
2010,07,03,17,27,11.40
2010,07,03,17,28,12.80
2010,07,03,17,29,11.50
2010,07,03,17,30,13.10
2010,07,03,17,31,11.20
2010,07,03,17,32,6.70
2010,07,03,17,33,9.40
2010,07,03,17,34,10.50
2010,07,03,17,35,10.60
2010,07,03,17,36,7.70
2010,07,03,17,37,13.70
2010,07,03,17,38,10.00
2010,07,03,17,39,8.50
2010,07,03,17,40,5.50
2010,07,03,17,41,12.60
2010,07,03,17,42,9.40
2010,07,03,17,43,9.90
2010,07,03,17,44,7.10
2010,07,03,17,45,10.20
2010,07,03,17,46,10.80
2010,07,03,17,47,10.30
2010,07,03,17,48,11.80
2010,07,03,17,49,13.10
2010,07,03,17,50,10.30
2010,07,03,17,51,7.10
2010,07,03,17,52,13.10
2010,07,03,17,53,16.90
2010,07,03,17,54,14.60
2010,07,03,17,55,14.50